Regional Weather Roundup
Issued by NWS Portland, ME

Home | Current Version | Previous Version | Text Only | Print | Product List | Glossary On
Versions: 1 2 3 4 5 6 7 8 9 10 11 12 13 14 15 16 17 18 19 20 21 22 23 24 25 26 27 28 29 30 31 32 33 34 35 36 37 38 39 40 41 42 43 44 45 46 47 48 49 50
000
ASUS41 KGYX 171010
RWRGYX
WEATHER ROUNDUP FOR MAINE AND NEW HAMPSHIRE
NATIONAL WEATHER SERVICE GRAY ME
600 AM EDT WED SEP 17 2014

MEZ002-005-006-010-012-015-018-020-021-024-026-027-029-171100-
MAINE

CITY           SKY/WX    TMP DP  RH WIND       PRES   REMARKS
PORTLAND       PTCLDY    45  44  97 W5        29.98S
SANFORD        CLEAR     39  36  87 CALM      29.98S
BAR HARBOR     MOCLDY    45  45 100 CALM      29.97R
WISCASSET      PTCLDY    46  44  93 CALM      29.99R
ROCKLAND       PTCLDY    46  45  93 W5        29.97S
FRYEBURG       FOG       40  38  93 CALM      30.00R VSB 1/2
LEWISTONAUBURN CLOUDY    43  39  87 CALM      29.98S
AUGUSTA        FOG       46  45  96 S5        29.98S VSB<1/4
WATERVILLE     MOCLDY    43  37  81 SW3       29.92S VSB<1/4
BANGOR         FOG       48  46  93 CALM      29.96R VSB 1/4
GREENVILLE       N/A     43  41  93 CALM      29.92S
MILLINOCKET    PTCLDY    40  38  93 CALM      29.95R
HOULTON        MOCLDY    46  45  96 S6        29.90R FOG
PRESQUE ISLE   CLEAR     39  36  87 N3        29.88R
FRENCHVILLE    CLEAR     44  40  85 W7        29.85R
CARIBOU        PTCLDY    43  42  97 SW6       29.87R
$$

NHZ002-005-008-009-011-012-014-171100-
NEW HAMPSHIRE

CITY           SKY/WX    TMP DP  RH WIND       PRES   REMARKS
PORTSMOUTH     CLEAR     47  46  96 W3        29.98R
ROCHESTER      FOG       46  45  96 NW6       29.98S VSB 1/2
NASHUA         CLEAR     44  43  97 CALM      30.01R
MANCHESTER     PTCLDY    47  44  90 CALM      29.99R
CONCORD        FOG       48  48 100 CALM      30.01R VSB 1/4
LACONIA        CLOUDY    48  46  93 S7        29.99R
PLYMOUTH       FOG       45  45 100 CALM      30.01S VSB 3/4
BERLIN         FOG       36  36 100 CALM      29.99S VSB 1/4
WHITEFIELD     FOG       43  42  97 S3        30.00R VSB 1/4
JAFFREY        CLEAR     39  38  96 S3        30.02R
LEBANON        FOG       46  43  89 SE3       30.01S VSB 1/4
MT WASHINGTON  FOG       30  30 100 W33         N/A  VSB 1/16WCI  14
$$

VTZ005-007-008-171100-
VERMONT

CITY           SKY/WX    TMP DP  RH WIND       PRES   REMARKS
ST JOHNSBURY     N/A     45  44  97 MISG      29.99R
MONTPELIER     FOG       38  38 100 CALM      30.03S VSB 1/4
BURLINGTON     CLEAR     45  43  93 CALM      30.01R
$$

MAZ007-012-024-CTZ003-RIZ002-NYZ038-NYZ072-171100-
SOUTHERN NEW ENGLAND AND NY

CITY           SKY/WX    TMP DP  RH WIND       PRES   REMARKS
BOSTON         PTCLDY    54  49  83 NW7       30.00R
WORCESTER      CLEAR     48  44  86 NW10      30.01R
NANTUCKET      CLEAR     53  50  89 CALM      30.00R
PROVIDENCE     PTCLDY    52  47  83 W3        30.01R
HARTFORD       PTCLDY    46  43  89 SE5       30.02R
ALBANY         PTCLDY    45  42  89 CALM      30.04S
NEW YORK CITY  PTCLDY    60  51  72 NW3       30.03R
$$

ANZ081-ANZ082-ANZ150-NHZ014-MEZ023>029-171100-
COASTAL MARINE OBSERVATIONS

STATION/POSITION TIME  TEMP    WIND        PRES    WAVE
                       AIR SEA DIR/SP/G            HT/PER
                 (UTC) (F)     (DEG/KT/KT) (MB)    (FT/S)
MATINICUS ROCK   1000          310/  9/ 10 1014.4R
PORTLAND WX BUOY 0950   55 59  330/  6/  6 1014.8R   1/16
WELLS            0900   51 58   CALM  /  3 1014.1R
ISLE OF SHOALS   0900   55     310/  8/ 10 1014.4S
JEFFREYS LEDGE   0921      61                N/A     2/12
CASHES LEDGE BUO 0950   60 63              1014.6R   2/13
$$

.............KEY..............
   WCI - WIND CHILL
   TC  - TEMPERATURE IN CELSIUS
   VSB - VISIBILITY IN MILES
   HX  - HEAT INDEX
   FAIR- INDICATES FEW OR NO CLOUDS BELOW 12,000 FT, WITH NO
         SIGNIFICANT WEATHER AND/OR OBSTRUCTIONS TO VISIBILITY.





USA.gov is the U.S. government's official web portal to all federal, state and local government web resources and services.